Time,TemperatureF,DewpointF,PressureIn,WindDirection,WindDirectionDegrees,WindSpeedMPH,WindSpeedGustMPH,Humidity,HourlyPrecipIn,Conditions,Clouds,dailyrainin,SoftwareType,DateUTC
2013-04-21 00:02:00,46.7,34.0,30.24,West,276,0.0,0.0,61,0.00,,,0.00,WSDL version 420,2013-04-21 04:02:00,
2013-04-21 00:04:00,46.6,34.1,30.24,East,96,0.0,0.0,62,0.00,,,0.00,WSDL version 420,2013-04-21 04:04:00,
2013-04-21 00:06:00,46.6,34.3,30.27,ESE,113,0.0,0.0,62,0.00,,,0.00,WSDL version 420,2013-04-21 04:06:00,
2013-04-21 00:08:00,46.5,34.2,30.27,ESE,113,0.0,0.0,62,0.00,,,0.00,WSDL version 420,2013-04-21 04:08:00,
2013-04-21 00:10:00,46.4,34.1,30.27,ESE,113,0.0,0.0,62,0.00,,,0.00,WSDL version 420,2013-04-21 04:10:00,
2013-04-21 00:16:00,46.3,34.2,30.27,ESE,113,0.0,0.0,63,0.00,,,0.00,WSDL version 420,2013-04-21 04:16:00,
2013-04-21 00:22:00,46.0,34.2,30.24,ESE,113,0.0,0.0,63,0.00,,,0.00,WSDL version 420,2013-04-21 04:22:00,
2013-04-21 00:28:00,46.0,34.3,30.24,ENE,68,0.0,0.0,63,0.00,,,0.00,WSDL version 420,2013-04-21 04:28:00,
2013-04-21 00:34:00,45.9,34.0,30.24,ENE,64,0.0,0.0,63,0.00,,,0.00,WSDL version 420,2013-04-21 04:34:00,
2013-04-21 00:40:00,45.8,33.9,30.27,North,360,0.0,0.0,63,0.00,,,0.00,WSDL version 420,2013-04-21 04:40:00,
2013-04-21 00:46:00,45.6,34.0,30.27,North,360,0.0,0.0,64,0.00,,,0.00,WSDL version 420,2013-04-21 04:46:00,
2013-04-21 00:52:00,45.5,34.0,30.27,North,360,0.0,0.0,64,0.00,,,0.00,WSDL version 420,2013-04-21 04:52:00,
2013-04-21 00:58:00,45.3,33.9,30.27,ESE,113,0.0,0.0,64,0.00,,,0.00,WSDL version 420,2013-04-21 04:58:00,
2013-04-21 01:04:00,45.1,33.7,30.27,North,360,0.0,0.0,64,-99.99,,,-99.99,WSDL version 420,2013-04-21 05:04:00,
2013-04-21 01:10:00,45.0,33.3,30.27,North,360,0.0,0.0,63,0.00,,,0.00,WSDL version 420,2013-04-21 05:10:00,
2013-04-21 01:16:00,44.8,33.4,30.27,NW,321,0.0,0.0,64,0.00,,,0.00,WSDL version 420,2013-04-21 05:16:00,
2013-04-21 01:22:00,44.6,33.5,30.27,NW,309,0.0,0.0,65,0.00,,,0.00,WSDL version 420,2013-04-21 05:22:00,
2013-04-21 01:28:00,44.6,33.6,30.27,SW,225,0.0,0.0,66,0.00,,,0.00,WSDL version 420,2013-04-21 05:28:00,
2013-04-21 01:34:00,44.2,33.6,30.27,SW,225,0.0,0.0,66,0.00,,,0.00,WSDL version 420,2013-04-21 05:34:00,
2013-04-21 01:40:00,44.1,33.8,30.27,SW,225,0.0,0.0,67,0.00,,,0.00,WSDL version 420,2013-04-21 05:40:00,
2013-04-21 01:46:00,43.8,33.6,30.27,SW,225,0.0,0.0,67,0.00,,,0.00,WSDL version 420,2013-04-21 05:46:00,
2013-04-21 01:52:00,43.7,33.8,30.27,SW,225,0.0,0.0,68,0.00,,,0.00,WSDL version 420,2013-04-21 05:52:00,
2013-04-21 01:58:00,43.5,33.7,30.27,SW,225,0.0,0.0,68,0.00,,,0.00,WSDL version 420,2013-04-21 05:58:00,
2013-04-21 02:04:00,43.5,33.9,30.27,NW,318,0.0,0.0,69,0.00,,,0.00,WSDL version 420,2013-04-21 06:04:00,
2013-04-21 10:56:00,55.0,31.8,-100.00,ENE,63,4.2,7.2,41,0.00,,,0.00,WSDL version 420,2013-04-21 14:56:00,
2013-04-21 11:02:00,55.6,32.5,30.47,ENE,75,2.8,7.2,42,0.00,,,0.00,WSDL version 420,2013-04-21 15:02:00,
2013-04-21 11:08:00,56.2,33.3,30.47,East,84,2.4,7.6,42,0.00,,,0.00,WSDL version 420,2013-04-21 15:08:00,
2013-04-21 11:14:00,57.2,33.6,30.47,ENE,71,2.8,5.8,40,0.00,,,0.00,WSDL version 420,2013-04-21 15:14:00,
2013-04-21 11:20:00,57.5,33.2,30.47,SSE,161,2.4,7.8,40,0.00,,,0.00,WSDL version 420,2013-04-21 15:20:00,
2013-04-21 11:26:00,57.7,32.7,30.47,NNW,328,3.7,7.8,39,0.00,,,0.00,WSDL version 420,2013-04-21 15:26:00,
2013-04-21 11:32:00,57.9,33.6,30.47,SE,127,2.4,6.5,40,0.00,,,0.00,WSDL version 420,2013-04-21 15:32:00,
2013-04-21 11:38:00,58.5,33.0,30.47,SSW,203,2.9,7.6,38,0.00,,,0.00,WSDL version 420,2013-04-21 15:38:00,
2013-04-21 11:44:00,58.6,33.8,30.47,NE,39,2.0,7.4,39,0.00,,,0.00,WSDL version 420,2013-04-21 15:44:00,
2013-04-21 11:50:00,59.4,34.1,30.45,ENE,71,3.2,6.0,38,0.00,,,0.00,WSDL version 420,2013-04-21 15:50:00,
2013-04-21 11:56:00,59.5,33.7,30.45,East,96,4.2,6.0,38,0.00,,,0.00,WSDL version 420,2013-04-21 15:56:00,
2013-04-21 12:02:00,59.9,33.9,30.45,ENE,72,3.6,6.0,37,0.00,,,0.00,WSDL version 420,2013-04-21 16:02:00,
2013-04-21 12:08:00,59.7,33.5,30.47,ENE,74,3.0,9.6,38,0.00,,,0.00,WSDL version 420,2013-04-21 16:08:00,
2013-04-21 12:14:00,60.5,34.6,30.47,SSE,165,2.8,5.8,38,0.00,,,0.00,WSDL version 420,2013-04-21 16:14:00,
2013-04-21 12:20:00,60.3,33.9,30.45,ESE,103,2.8,5.8,37,0.00,,,0.00,WSDL version 420,2013-04-21 16:20:00,
2013-04-21 12:26:00,60.0,33.2,30.45,ESE,105,3.1,7.4,37,0.00,,,0.00,WSDL version 420,2013-04-21 16:26:00,
2013-04-21 12:32:00,60.0,33.0,30.45,East,90,3.2,8.5,36,0.00,,,0.00,WSDL version 420,2013-04-21 16:32:00,
2013-04-21 12:38:00,60.2,33.4,30.45,ENE,68,4.2,8.7,36,0.00,,,0.00,WSDL version 420,2013-04-21 16:38:00,
2013-04-21 12:44:00,60.6,33.5,30.45,East,87,3.6,8.7,36,0.00,,,0.00,WSDL version 420,2013-04-21 16:44:00,
2013-04-21 12:50:00,60.5,33.3,30.42,NE,53,3.7,10.3,36,0.00,,,0.00,WSDL version 420,2013-04-21 16:50:00,
2013-04-21 12:56:00,60.4,33.3,30.42,NE,55,2.8,10.3,36,0.00,,,0.00,WSDL version 420,2013-04-21 16:56:00,
2013-04-21 13:02:00,61.2,34.4,30.42,ENE,64,4.2,6.0,37,0.00,,,0.00,WSDL version 420,2013-04-21 17:02:00,
2013-04-21 13:08:00,61.1,34.1,30.42,NE,51,4.5,7.8,37,0.00,,,0.00,WSDL version 420,2013-04-21 17:08:00,
2013-04-21 13:14:00,61.2,33.9,30.42,ENE,74,3.6,7.8,36,0.00,,,0.00,WSDL version 420,2013-04-21 17:14:00,
2013-04-21 13:20:00,61.2,33.9,30.42,ESE,103,2.6,6.5,36,0.00,,,0.00,WSDL version 420,2013-04-21 17:20:00,
2013-04-21 13:26:00,61.7,34.5,30.42,SE,125,3.1,7.2,36,0.00,,,0.00,WSDL version 420,2013-04-21 17:26:00,
2013-04-21 13:32:00,61.8,34.9,30.42,NE,45,2.5,7.2,36,0.00,,,0.00,WSDL version 420,2013-04-21 17:32:00,
2013-04-21 13:38:00,61.3,33.9,30.42,ENE,64,4.3,9.6,35,0.00,,,0.00,WSDL version 420,2013-04-21 17:38:00,
2013-04-21 13:44:00,62.0,35.1,30.42,ENE,60,3.0,9.6,37,0.00,,,0.00,WSDL version 420,2013-04-21 17:44:00,
2013-04-21 13:50:00,61.8,34.4,30.42,East,87,3.3,6.0,36,0.00,,,0.00,WSDL version 420,2013-04-21 17:50:00,
2013-04-21 13:56:00,61.9,34.7,30.42,ESE,120,2.2,6.0,36,0.00,,,0.00,WSDL version 420,2013-04-21 17:56:00,
2013-04-21 14:02:00,62.6,34.8,30.42,ENE,64,3.4,10.3,35,0.00,,,0.00,WSDL version 420,2013-04-21 18:02:00,
2013-04-21 14:08:00,62.7,35.1,30.42,NNE,30,3.2,7.8,35,0.00,,,0.00,WSDL version 420,2013-04-21 18:08:00,
2013-04-21 14:14:00,62.7,35.1,30.42,East,90,3.7,7.8,36,-99.99,,,-99.99,WSDL version 420,2013-04-21 18:14:00,
2013-04-21 14:20:00,63.5,36.1,30.42,East,87,3.1,7.4,36,0.00,,,0.00,WSDL version 420,2013-04-21 18:20:00,
2013-04-21 14:26:00,63.9,36.5,30.42,ENE,71,2.5,7.4,36,0.00,,,0.00,WSDL version 420,2013-04-21 18:26:00,
2013-04-21 14:32:00,63.8,35.6,30.42,NE,42,4.5,10.1,35,0.00,,,0.00,WSDL version 420,2013-04-21 18:32:00,
2013-04-21 14:38:00,64.1,36.4,30.39,SSE,148,1.4,10.1,35,0.00,,,0.00,WSDL version 420,2013-04-21 18:38:00,
2013-04-21 14:44:00,64.6,36.4,30.39,NE,39,3.5,10.5,35,0.00,,,0.00,WSDL version 420,2013-04-21 18:44:00,
2013-04-21 14:50:00,64.2,35.7,30.42,NE,45,4.3,10.3,35,0.00,,,0.00,WSDL version 420,2013-04-21 18:50:00,
2013-04-21 14:56:00,64.3,36.5,30.42,ENE,58,3.9,7.6,35,0.00,,,0.00,WSDL version 420,2013-04-21 18:56:00,
2013-04-21 15:02:00,64.8,36.5,30.42,ENE,60,3.3,5.8,35,0.00,,,0.00,WSDL version 420,2013-04-21 19:02:00,
2013-04-21 15:08:00,64.1,35.9,30.42,ENE,64,3.5,8.5,35,0.00,,,0.00,WSDL version 420,2013-04-21 19:08:00,
2013-04-21 15:14:00,64.3,36.1,30.42,East,84,2.4,8.5,35,0.00,,,0.00,WSDL version 420,2013-04-21 19:14:00,
2013-04-21 15:20:00,65.2,36.9,30.39,SE,129,2.0,8.7,35,0.00,,,0.00,WSDL version 420,2013-04-21 19:20:00,
2013-04-21 15:26:00,64.8,35.8,30.39,ESE,109,3.6,7.6,34,0.00,,,0.00,WSDL version 420,2013-04-21 19:26:00,
2013-04-21 15:32:00,65.2,36.4,30.39,NE,45,2.5,6.5,34,0.00,,,0.00,WSDL version 420,2013-04-21 19:32:00,
2013-04-21 15:38:00,65.7,37.3,30.39,South,170,2.8,4.9,35,0.00,,,0.00,WSDL version 420,2013-04-21 19:38:00,
2013-04-21 15:44:00,65.9,37.1,30.39,East,83,4.2,10.7,34,0.00,,,0.00,WSDL version 420,2013-04-21 19:44:00,
2013-04-21 15:50:00,65.6,36.9,30.39,East,98,3.1,10.7,34,0.00,,,0.00,WSDL version 420,2013-04-21 19:50:00,
2013-04-21 15:56:00,65.5,36.9,30.39,SSE,167,2.4,6.5,35,0.00,,,0.00,WSDL version 420,2013-04-21 19:56:00,
2013-04-21 16:02:00,65.6,37.2,30.39,SSW,209,2.6,4.0,35,0.00,,,0.00,WSDL version 420,2013-04-21 20:02:00,
2013-04-21 16:08:00,65.3,37.1,30.39,ESE,106,2.4,4.3,35,0.00,,,0.00,WSDL version 420,2013-04-21 20:08:00,
2013-04-21 16:14:00,65.8,36.8,30.39,SW,229,1.5,4.9,34,0.00,,,0.00,WSDL version 420,2013-04-21 20:14:00,
2013-04-21 16:20:00,65.8,36.7,30.36,NE,45,2.8,5.6,34,0.00,,,0.00,WSDL version 420,2013-04-21 20:20:00,
2013-04-21 16:26:00,64.7,35.7,30.36,NNE,23,3.9,7.4,34,0.00,,,0.00,WSDL version 420,2013-04-21 20:26:00,
2013-04-21 16:32:00,63.6,35.5,30.36,NE,38,2.6,7.4,35,0.00,,,0.00,WSDL version 420,2013-04-21 20:32:00,
2013-04-21 16:38:00,64.2,35.9,30.36,East,93,2.4,4.9,35,0.00,,,0.00,WSDL version 420,2013-04-21 20:38:00,
2013-04-21 16:44:00,65.2,36.9,30.36,ENE,77,3.3,7.2,35,0.00,,,0.00,WSDL version 420,2013-04-21 20:44:00,
2013-04-21 16:50:00,65.5,36.8,30.33,East,80,4.4,8.5,34,0.00,,,0.00,WSDL version 420,2013-04-21 20:50:00,
2013-04-21 16:56:00,64.5,35.6,30.33,ENE,68,2.7,8.5,34,0.00,,,0.00,WSDL version 420,2013-04-21 20:56:00,
2013-04-21 17:02:00,63.9,35.0,30.33,East,82,1.6,5.8,34,0.00,,,0.00,WSDL version 420,2013-04-21 21:02:00,
2013-04-21 17:08:00,63.9,35.6,30.36,East,79,2.0,4.0,35,0.00,,,0.00,WSDL version 420,2013-04-21 21:08:00,
2013-04-21 17:14:00,64.3,35.4,30.36,ENE,74,2.1,5.8,34,0.00,,,0.00,WSDL version 420,2013-04-21 21:14:00,
2013-04-21 17:20:00,63.8,35.0,30.36,NE,42,3.0,5.8,34,0.00,,,0.00,WSDL version 420,2013-04-21 21:20:00,
2013-04-21 17:26:00,63.0,34.2,30.36,ESE,113,1.3,4.3,34,0.00,,,0.00,WSDL version 420,2013-04-21 21:26:00,
2013-04-21 17:32:00,63.5,34.8,30.36,NNE,26,3.0,4.7,34,0.00,,,0.00,WSDL version 420,2013-04-21 21:32:00,
2013-04-21 17:38:00,63.3,34.5,30.36,ENE,77,3.5,4.9,34,0.00,,,0.00,WSDL version 420,2013-04-21 21:38:00,
2013-04-21 17:44:00,63.0,34.5,30.36,South,183,2.1,5.4,35,0.00,,,0.00,WSDL version 420,2013-04-21 21:44:00,
2013-04-21 17:50:00,63.2,34.4,30.36,East,84,2.4,5.6,34,0.00,,,0.00,WSDL version 420,2013-04-21 21:50:00,
2013-04-21 17:56:00,63.2,34.8,30.36,East,93,2.7,6.5,34,0.00,,,0.00,WSDL version 420,2013-04-21 21:56:00,
2013-04-21 18:02:00,62.7,34.0,30.36,South,188,2.4,5.6,34,0.00,,,0.00,WSDL version 420,2013-04-21 22:02:00,
2013-04-21 18:08:00,62.4,34.4,30.36,NNE,27,2.8,7.4,35,0.00,,,0.00,WSDL version 420,2013-04-21 22:08:00,
2013-04-21 18:14:00,62.2,34.3,30.36,East,87,3.6,8.1,35,0.00,,,0.00,WSDL version 420,2013-04-21 22:14:00,
2013-04-21 18:20:00,61.9,34.0,30.36,NE,54,3.4,8.1,35,0.00,,,0.00,WSDL version 420,2013-04-21 22:20:00,
2013-04-21 18:26:00,61.9,34.0,30.36,SSW,208,2.5,7.4,35,0.00,,,0.00,WSDL version 420,2013-04-21 22:26:00,
2013-04-21 18:32:00,61.5,33.6,30.36,East,79,2.8,5.6,35,0.00,,,0.00,WSDL version 420,2013-04-21 22:32:00,
2013-04-21 18:38:00,61.2,33.6,30.36,ESE,113,2.3,5.6,36,0.00,,,0.00,WSDL version 420,2013-04-21 22:38:00,
2013-04-21 18:44:00,61.0,33.9,30.36,SE,132,1.2,3.4,36,0.00,,,0.00,WSDL version 420,2013-04-21 22:44:00,
2013-04-21 18:50:00,61.0,33.9,30.36,NE,56,1.7,3.1,36,0.00,,,0.00,WSDL version 420,2013-04-21 22:50:00,
2013-04-21 18:56:00,61.1,34.2,30.36,ESE,105,1.8,4.7,36,0.00,,,0.00,WSDL version 420,2013-04-21 22:56:00,
2013-04-21 19:02:00,60.9,34.1,30.36,East,87,2.1,4.7,36,0.00,,,0.00,WSDL version 420,2013-04-21 23:02:00,
2013-04-21 19:08:00,60.6,33.5,30.36,East,93,2.5,4.7,36,0.00,,,0.00,WSDL version 420,2013-04-21 23:08:00,
2013-04-21 19:14:00,60.2,33.5,30.36,SE,125,0.6,3.8,37,0.00,,,0.00,WSDL version 420,2013-04-21 23:14:00,
2013-04-21 19:20:00,60.1,33.7,30.39,SSW,210,2.0,3.8,37,0.00,,,0.00,WSDL version 420,2013-04-21 23:20:00,
2013-04-21 19:26:00,60.0,33.7,30.39,ESE,105,1.5,4.0,37,0.00,,,0.00,WSDL version 420,2013-04-21 23:26:00,
2013-04-21 19:32:00,59.6,33.3,30.39,ESE,103,1.6,4.0,37,0.00,,,0.00,WSDL version 420,2013-04-21 23:32:00,
2013-04-21 19:38:00,59.2,33.3,30.36,SE,132,0.4,3.1,38,0.00,,,0.00,WSDL version 420,2013-04-21 23:38:00,
2013-04-21 19:44:00,58.8,33.3,30.36,East,93,0.3,2.5,38,0.00,,,0.00,WSDL version 420,2013-04-21 23:44:00,
2013-04-21 19:50:00,58.4,33.1,30.39,ESE,103,1.4,3.4,38,0.00,,,0.00,WSDL version 420,2013-04-21 23:50:00,
2013-04-21 19:56:00,58.0,33.2,30.39,SE,127,0.0,3.4,39,0.00,,,0.00,WSDL version 420,2013-04-21 23:56:00,
2013-04-21 20:02:00,57.7,33.0,30.39,NE,49,0.9,2.2,39,0.00,,,0.00,WSDL version 420,2013-04-22 00:02:00,
2013-04-21 20:08:00,57.4,33.3,30.39,West,267,0.9,3.4,40,0.00,,,0.00,WSDL version 420,2013-04-22 00:08:00,
2013-04-21 20:14:00,57.3,33.5,30.39,ESE,116,0.4,3.4,41,0.00,,,0.00,WSDL version 420,2013-04-22 00:14:00,
2013-04-21 20:20:00,57.2,33.7,30.39,NE,34,1.3,4.3,41,0.00,,,0.00,WSDL version 420,2013-04-22 00:20:00,
2013-04-21 20:26:00,56.9,34.1,30.39,East,90,1.0,4.3,42,0.00,,,0.00,WSDL version 420,2013-04-22 00:26:00,
2013-04-21 20:32:00,56.7,33.9,30.39,East,86,0.6,2.7,42,0.00,,,0.00,WSDL version 420,2013-04-22 00:32:00,
2013-04-21 20:38:00,56.3,33.7,30.39,NNE,28,0.0,2.5,43,0.00,,,0.00,WSDL version 420,2013-04-22 00:38:00,
2013-04-21 20:44:00,56.3,34.1,30.39,NE,53,1.3,2.9,43,0.00,,,0.00,WSDL version 420,2013-04-22 00:44:00,
2013-04-21 20:50:00,56.1,34.1,30.42,East,90,1.4,2.7,43,0.00,,,0.00,WSDL version 420,2013-04-22 00:50:00,
2013-04-21 20:56:00,55.9,34.4,30.42,NE,45,1.3,2.7,44,0.00,,,0.00,WSDL version 420,2013-04-22 00:56:00,
2013-04-21 21:02:00,55.9,34.4,30.42,SSE,165,1.4,3.4,44,0.00,,,0.00,WSDL version 420,2013-04-22 01:02:00,
2013-04-21 21:08:00,56.1,35.1,30.42,NNE,28,1.1,5.6,45,0.00,,,0.00,WSDL version 420,2013-04-22 01:08:00,
2013-04-21 21:14:00,56.3,35.3,30.42,East,96,0.2,5.6,45,0.00,,,0.00,WSDL version 420,2013-04-22 01:14:00,
2013-04-21 21:20:00,56.4,35.3,30.42,ENE,71,1.6,4.0,45,0.00,,,0.00,WSDL version 420,2013-04-22 01:20:00,
2013-04-21 21:26:00,56.5,35.4,30.42,ENE,68,1.6,3.4,45,0.00,,,0.00,WSDL version 420,2013-04-22 01:26:00,
2013-04-21 21:32:00,56.5,35.4,30.42,NE,48,1.0,4.0,45,0.00,,,0.00,WSDL version 420,2013-04-22 01:32:00,
2013-04-21 21:38:00,56.5,35.4,30.42,ENE,71,2.0,4.3,45,0.00,,,0.00,WSDL version 420,2013-04-22 01:38:00,
2013-04-21 21:44:00,56.5,35.4,30.42,ESE,120,2.0,5.8,45,0.00,,,0.00,WSDL version 420,2013-04-22 01:44:00,
2013-04-21 21:50:00,56.5,35.2,30.42,ENE,71,2.5,5.8,44,0.00,,,0.00,WSDL version 420,2013-04-22 01:50:00,
2013-04-21 21:56:00,56.5,35.3,30.42,ESE,115,2.9,4.3,45,0.00,,,0.00,WSDL version 420,2013-04-22 01:56:00,
2013-04-21 22:02:00,56.5,35.1,30.42,ESE,120,2.0,4.3,44,0.00,,,0.00,WSDL version 420,2013-04-22 02:02:00,
2013-04-21 22:08:00,56.4,34.7,30.42,East,100,1.8,4.3,44,0.00,,,0.00,WSDL version 420,2013-04-22 02:08:00,
2013-04-21 22:14:00,56.3,35.3,30.42,WSW,254,0.6,3.1,45,0.00,,,0.00,WSDL version 420,2013-04-22 02:14:00,
2013-04-21 22:20:00,56.3,35.3,30.42,East,86,1.7,4.0,45,0.00,,,0.00,WSDL version 420,2013-04-22 02:20:00,
2013-04-21 22:26:00,56.1,34.9,30.42,ESE,113,2.8,5.4,44,0.00,,,0.00,WSDL version 420,2013-04-22 02:26:00,
2013-04-21 22:32:00,56.1,35.1,30.42,ENE,71,4.4,12.5,45,0.00,,,0.00,WSDL version 420,2013-04-22 02:32:00,
2013-04-21 22:38:00,56.1,35.1,30.42,ESE,121,1.9,12.5,45,0.00,,,0.00,WSDL version 420,2013-04-22 02:38:00,
2013-04-21 22:44:00,55.9,34.9,30.42,SE,146,2.6,5.4,45,0.00,,,0.00,WSDL version 420,2013-04-22 02:44:00,
2013-04-21 22:50:00,55.9,35.0,30.42,ENE,58,2.2,5.4,46,0.00,,,0.00,WSDL version 420,2013-04-22 02:50:00,
2013-04-21 22:56:00,55.7,34.9,30.42,ENE,74,1.8,4.0,45,0.00,,,0.00,WSDL version 420,2013-04-22 02:56:00,
2013-04-21 23:02:00,55.6,35.1,30.42,East,94,2.5,4.0,46,0.00,,,0.00,WSDL version 420,2013-04-22 03:02:00,
2013-04-21 23:08:00,55.5,35.1,30.42,East,80,2.8,4.3,46,0.00,,,0.00,WSDL version 420,2013-04-22 03:08:00,
2013-04-21 23:14:00,55.4,34.9,30.42,SE,141,1.8,4.7,46,0.00,,,0.00,WSDL version 420,2013-04-22 03:14:00,
2013-04-21 23:20:00,55.2,35.4,30.39,East,90,3.0,6.3,47,0.00,,,0.00,WSDL version 420,2013-04-22 03:20:00,
2013-04-21 23:26:00,54.9,35.1,30.39,East,96,2.1,4.3,47,0.00,,,0.00,WSDL version 420,2013-04-22 03:26:00,
2013-04-21 23:32:00,54.9,35.0,30.39,ESE,116,2.4,5.8,47,0.00,,,0.00,WSDL version 420,2013-04-22 03:32:00,
2013-04-21 23:38:00,54.9,35.0,30.42,South,169,2.6,5.8,47,0.00,,,0.00,WSDL version 420,2013-04-22 03:38:00,
2013-04-21 23:44:00,54.8,34.9,30.42,East,90,2.8,5.8,47,0.00,,,0.00,WSDL version 420,2013-04-22 03:44:00,
2013-04-21 23:50:00,54.7,34.9,30.42,East,98,2.8,5.4,47,0.00,,,0.00,WSDL version 420,2013-04-22 03:50:00,
2013-04-21 23:56:00,54.5,34.7,30.42,SE,124,1.8,4.5,47,0.00,,,0.00,WSDL version 420,2013-04-22 03:56:00,